When you browse on this site, cookies collect data to enhance your experience and personalize the content and advertising you see.
Visit our Privacy Policy to learn more. By continuing to use the site, you agree to this use of cookies and data.
  • In Hungary
  • List of Countries
  • For 7 days
  • Water Temperature
  • Satellite Maps
  • Weather Map
  • News
  • Weather Widgets
  • user-avatar
    Login

    Hourly Weather Burgas

    Today, 18 November, Sunday

    Time Temperature Precipitation Wind Pressure Humidity
    00:00 +2°C° 0.3 mm 7 mps 769 mmHg 80%
    01:00 +2°C° 0.3 mm 7 mps 769 mmHg 81%
    02:00 +2°C° 0 mm 7 mps 769 mmHg 83%
    03:00 +2°C° 0.1 mm 7 mps 769 mmHg 83%
    04:00 +2°C° 0.1 mm 7 mps 768 mmHg 83%
    05:00 +2°C° 0.1 mm 7 mps 768 mmHg 83%
    06:00 +2°C° 0.1 mm 7 mps 768 mmHg 82%
    07:00 +2°C° 0.1 mm 7 mps 768 mmHg 81%
    08:00 +2°C° 0 mm 7 mps 768 mmHg 80%
    09:00 +3°C° 0 mm 7 mps 767 mmHg 78%
    10:00 +4°C° 0 mm 7 mps 767 mmHg 75%
    11:00 +5°C° 0 mm 7 mps 767 mmHg 73%
    12:00 +5°C° 0 mm 7 mps 766 mmHg 73%
    13:00 +6°C° 0 mm 7 mps 765 mmHg 73%
    14:00 +8°C° 0 mm 7 mps 765 mmHg 73%
    15:00 +6°C° 0.2 mm 7 mps 764 mmHg 76%
    16:00 +6°C° 0.2 mm 7 mps 763 mmHg 79%
    17:00 +6°C° 0.2 mm 7 mps 762 mmHg 83%
    18:00 +6°C° 1.2 mm 7 mps 762 mmHg 85%
    19:00 +6°C° 1.2 mm 8 mps 761 mmHg 87%
    20:00 +6°C° 1.2 mm 8 mps 761 mmHg 89%
    21:00 +6°C° 1.5 mm 8 mps 760 mmHg 90%
    22:00 +7°C° 1.5 mm 8 mps 759 mmHg 91%
    23:00 +7°C° 1.5 mm 8 mps 759 mmHg 92%

    Tomorrow, 19 November, Monday

    Time Temperature Precipitation Wind Pressure Humidity
    00:00 +8°C° 1.8 mm 7 mps 758 mmHg 92%
    01:00 +9°C° 1.8 mm 7 mps 757 mmHg 93%
    02:00 +9°C° 1.8 mm 7 mps 756 mmHg 93%
    03:00 +9°C° 2.1 mm 6 mps 755 mmHg 94%
    04:00 +10°C° 2.1 mm 6 mps 755 mmHg 95%
    05:00 +10°C° 2.1 mm 5 mps 754 mmHg 95%
    06:00 +10°C° 1.8 mm 5 mps 754 mmHg 95%
    07:00 +10°C° 1.8 mm 5 mps 754 mmHg 94%
    08:00 +11°C° 1.8 mm 4 mps 753 mmHg 94%
    09:00 +10°C° 0.2 mm 5 mps 754 mmHg 88%
    10:00 +12°C° 0.2 mm 5 mps 755 mmHg 82%
    11:00 +12°C° 0.2 mm 5 mps 755 mmHg 77%
    12:00 +12°C° 0 mm 5 mps 756 mmHg 73%
    13:00 +12°C° 0 mm 5 mps 756 mmHg 70%
    14:00 +12°C° 0 mm 5 mps 757 mmHg 67%
    15:00 +10°C° 0 mm 5 mps 758 mmHg 70%
    16:00 +9°C° 0 mm 5 mps 758 mmHg 73%
    17:00 +8°C° 0 mm 5 mps 759 mmHg 76%
    18:00 +7°C° 0 mm 5 mps 760 mmHg 78%
    19:00 +6°C° 0 mm 5 mps 761 mmHg 79%
    20:00 +6°C° 0 mm 4 mps 762 mmHg 81%
    21:00 +5°C° 0 mm 4 mps 762 mmHg 82%
    22:00 +5°C° 0 mm 3 mps 763 mmHg 83%
    23:00 +5°C° 0 mm 3 mps 763 mmHg 84%

    Day after tomorrow, 20 November, Tuesday

    Time Temperature Precipitation Wind Pressure Humidity
    00:00 +4°C° 0 mm 3 mps 763 mmHg 84%
    01:00 +4°C° 0 mm 3 mps 763 mmHg 84%
    02:00 +5°C° 0 mm 2 mps 764 mmHg 85%
    03:00 +5°C° 0 mm 2 mps 764 mmHg 86%
    04:00 +4°C° 0 mm 3 mps 764 mmHg 87%
    05:00 +4°C° 0 mm 3 mps 764 mmHg 88%
    06:00 +4°C° 0 mm 3 mps 764 mmHg 88%
    07:00 +4°C° 0 mm 3 mps 765 mmHg 87%
    08:00 +4°C° 0 mm 3 mps 765 mmHg 87%
    09:00 +5°C° 0 mm 3 mps 765 mmHg 85%
    10:00 +7°C° 0 mm 3 mps 765 mmHg 83%
    11:00 +8°C° 0 mm 3 mps 765 mmHg 81%
    12:00 +7°C° 0 mm 4 mps 764 mmHg 82%
    13:00 +8°C° 0 mm 4 mps 764 mmHg 83%
    14:00 +8°C° 0 mm 4 mps 763 mmHg 84%
    15:00 +8°C° 0.1 mm 4 mps 763 mmHg 86%
    16:00 +8°C° 0.1 mm 4 mps 763 mmHg 89%
    17:00 +8°C° 0.1 mm 4 mps 762 mmHg 91%
    18:00 +10°C° 0.3 mm 4 mps 762 mmHg 92%
    19:00 +10°C° 0.3 mm 4 mps 762 mmHg 94%
    20:00 +10°C° 0.3 mm 4 mps 762 mmHg 95%
    21:00 +10°C° 0.6 mm 4 mps 762 mmHg 95%
    22:00 +10°C° 0.6 mm 4 mps 762 mmHg 96%
    23:00 +11°C° 0.6 mm 3 mps 761 mmHg 97%

    21 November, Wednesday

    Time Temperature Precipitation Wind Pressure Humidity
    00:00 +11°C° 0.4 mm 3 mps 761 mmHg 97%
    01:00 +11°C° 0.4 mm 3 mps 761 mmHg 97%
    02:00 +11°C° 0.4 mm 3 mps 760 mmHg 97%
    03:00 +12°C° 0.7 mm 3 mps 760 mmHg 97%
    04:00 +12°C° 0.7 mm 3 mps 760 mmHg 97%
    05:00 +12°C° 0.7 mm 3 mps 759 mmHg 97%
    06:00 +12°C° 0.6 mm 3 mps 759 mmHg 97%
    07:00 +13°C° 0.6 mm 2 mps 759 mmHg 97%
    08:00 +13°C° 0.6 mm 2 mps 759 mmHg 97%
    09:00 +14°C° 0.4 mm 2 mps 759 mmHg 95%
    10:00 +15°C° 0.4 mm 2 mps 758 mmHg 93%
    11:00 +16°C° 0.4 mm 2 mps 758 mmHg 91%
    12:00 +16°C° 0.5 mm 2 mps 758 mmHg 92%
    13:00 +15°C° 0.5 mm 2 mps 758 mmHg 92%
    14:00 +15°C° 0.5 mm 2 mps 757 mmHg 92%
    15:00 +15°C° 0.4 mm 2 mps 757 mmHg 93%
    16:00 +15°C° 0.4 mm 2 mps 757 mmHg 94%
    17:00 +14°C° 0.4 mm 3 mps 757 mmHg 95%
    18:00 +13°C° 1 mm 3 mps 757 mmHg 96%
    19:00 +13°C° 1 mm 3 mps 758 mmHg 96%
    20:00 +13°C° 1 mm 3 mps 758 mmHg 96%
    21:00 +13°C° 1.1 mm 3 mps 758 mmHg 95%
    22:00 +13°C° 1.1 mm 3 mps 758 mmHg 94%
    23:00 +12°C° 1.1 mm 3 mps 758 mmHg 93%

    22 November, Thursday

    Time Temperature Precipitation Wind Pressure Humidity
    00:00 +12°C° 0.9 mm 5 mps 758 mmHg 92%
    01:00 +11°C° 0.9 mm 6 mps 758 mmHg 92%
    02:00 +10°C° 0.9 mm 7 mps 759 mmHg 91%
    03:00 +10°C° 0.7 mm 7 mps 759 mmHg 90%
    04:00 +9°C° 0.7 mm 8 mps 759 mmHg 89%
    05:00 +8°C° 0.7 mm 9 mps 759 mmHg 88%
    06:00 +7°C° 0.5 mm 9 mps 760 mmHg 88%
    07:00 +7°C° 0.5 mm 8 mps 760 mmHg 87%
    08:00 +6°C° 0.5 mm 8 mps 761 mmHg 87%
    09:00 +6°C° 0.4 mm 8 mps 761 mmHg 87%
    10:00 +6°C° 0.4 mm 8 mps 762 mmHg 86%
    11:00 +5°C° 0.4 mm 8 mps 762 mmHg 86%
    12:00 +5°C° 0.2 mm 8 mps 763 mmHg 85%
    13:00 +5°C° 0.2 mm 7 mps 763 mmHg 85%
    14:00 +5°C° 0.2 mm 7 mps 763 mmHg 84%
    15:00 +5°C° 0.1 mm 7 mps 763 mmHg 84%
    16:00 +5°C° 0.1 mm 7 mps 764 mmHg 84%
    17:00 +5°C° 0.1 mm 7 mps 764 mmHg 83%
    18:00 +5°C° 0.1 mm 7 mps 765 mmHg 83%
    19:00 +4°C° 0.1 mm 7 mps 765 mmHg 83%
    20:00 +4°C° 0.1 mm 7 mps 766 mmHg 83%
    21:00 +4°C° 0.1 mm 7 mps 766 mmHg 83%
    22:00 +4°C° 0.1 mm 7 mps 766 mmHg 84%
    23:00 +4°C° 0.1 mm 7 mps 767 mmHg 84%

    23 November, Friday

    Time Temperature Precipitation Wind Pressure Humidity
    00:00 +3°C° 0.1 mm 6 mps 767 mmHg 84%
    01:00 +3°C° 0.1 mm 6 mps 767 mmHg 85%
    02:00 +3°C° 0.1 mm 6 mps 767 mmHg 85%
    03:00 +2°C° 0.1 mm 6 mps 768 mmHg 85%
    04:00 +2°C° 0.1 mm 6 mps 768 mmHg 85%
    05:00 +2°C° 0.1 mm 6 mps 768 mmHg 85%
    06:00 +2°C° 0 mm 6 mps 769 mmHg 85%
    07:00 +2°C° 0 mm 6 mps 769 mmHg 85%
    08:00 +1°C° 0 mm 5 mps 770 mmHg 84%
    09:00 +2°C° 0 mm 5 mps 770 mmHg 79%
    10:00 +3°C° 0 mm 5 mps 770 mmHg 73%
    11:00 +5°C° 0 mm 5 mps 771 mmHg 68%
    12:00 +5°C° 0 mm 5 mps 770 mmHg 64%
    13:00 +6°C° 0 mm 5 mps 770 mmHg 61%
    14:00 +6°C° 0 mm 5 mps 770 mmHg 58%
    15:00 +5°C° 0 mm 5 mps 770 mmHg 61%
    16:00 +3°C° 0 mm 5 mps 771 mmHg 64%
    17:00 +3°C° 0 mm 5 mps 771 mmHg 67%
    18:00 +3°C° 0 mm 4 mps 771 mmHg 69%
    19:00 +3°C° 0 mm 4 mps 771 mmHg 71%
    20:00 +1°C° 0 mm 4 mps 771 mmHg 73%
    21:00 +1°C° 0 mm 4 mps 771 mmHg 73%
    22:00 +1°C° 0 mm 4 mps 771 mmHg 74%
    23:00 +1°C° 0 mm 4 mps 771 mmHg 75%
    Show more